Regional Weather Roundup
Issued by NWS

Home | Current Version | Previous Version | Graphics & Text | Print | Product List | Glossary On
Versions: 1 2 3 4 5 6 7 8 9 10 11 12 13 14 15 16 17 18 19 20 21 22 23 24 25 26 27 28 29 30 31 32 33 34 35 36 37 38 39 40 41 42 43 44 45 46 47 48 49 50
000
ASUS43 KDTX 170110
RWRMI
MICHIGAN HOURLY REGIONAL WEATHER ROUNDUP
NATIONAL WEATHER SERVICE DETROIT/PONTIAC MI
900 PM EDT TUE SEP 16 2014

NOTE: "FAIR" INDICATES FEW OR NO CLOUDS BELOW 12,000 FEET WITH NO
SIGNIFICANT WEATHER AND/OR OBSTRUCTION TO VISIBILITY.

MIZ047>049-052>055-059>063-066>070-074>076-081>083-170200-
SOUTHEAST LOWER MICHIGAN

CITY           SKY/WX    TMP DP  RH WIND       PRES   REMARKS
ADRIAN         CLEAR     53  47  79 NW3       30.09S
ALMA           CLEAR     51  42  72 SW6       30.09S
ANN ARBOR      CLEAR     47  43  86 SW3       30.08S
BAD AXE        CLEAR     48  47  96 CALM      30.07S
CARO           CLEAR     49  46  90 CALM      30.07S
DETROIT CITY   CLEAR     62  43  49 NW3       30.08R
DETROIT        PTCLDY    59  44  57 W3        30.09R
FLINT          MOCLDY    56  47  71 W8        30.09R
GROSSE ILE     CLEAR     57  50  77 CALM      30.07S
HILLSDALE      PTCLDY    49  48  95 CALM      30.10R
HOWELL         MOCLDY    54  46  72 NW6       30.09R

CITY           SKY/WX    TMP DP  RH WIND       PRES   REMARKS
JACKSON        PTCLDY    53  47  79 VRB5      30.10R
LAMBERTVILLE   CLEAR     52  48  87 CALM      30.09S
LANSING        CLEAR     51  42  71 W5        30.10S
LAPEER         MOCLDY    51  49  93 CALM      30.08S
MASON          MOCLDY    53  44  70 NW5       30.10S
MONROE         CLEAR     52  48  87 CALM      30.07S
MT. CLEMENS    CLEAR     54  47  79 CALM      30.07S
PONTIAC        PTCLDY    56  46  69 CALM      30.08R
PORT HOPE        N/A     51  47  86 SW3       30.04S
PORT HURON     MOCLDY    50  48  93 CALM      30.08F
TRI CITIES     CLEAR     55  46  71 SW3       30.09R
TROY           MOCLDY    61  43  50 CALM      30.10R
SAGINAW HB     CLEAR     54  45  71 SW3       30.07S
$$
MIZ043>046-050>051-056>058-064>065-071>073-077>080-170200-
SOUTHWEST LOWER MICHIGAN

CITY           SKY/WX    TMP DP  RH WIND       PRES   REMARKS
BATTLE CREEK   CLEAR     52  43  71 NW5       30.11S
BENTON HARBOR  CLEAR     48  46  93 CALM      30.10F
BIG RAPIDS     CLEAR     48  45  88 W3        30.09R
COLDWATER      CLEAR     56  47  72 NW3       30.11R
FREMONT        FAIR      45  42  89 CALM      30.09S
HOLLAND        CLEAR     49  45  86 CALM      30.11F
GRAND RAPIDS   CLEAR     53  43  68 SW5       30.11S
IONIA          FAIR      50  43  76 W3        30.09S
KALAMAZOO      CLEAR     51  43  74 NW3       30.12S
LUDINGTON      CLEAR     49  45  85 CALM      30.09S
MARSHALL       CLEAR     53  44  70 CALM      30.10S
MOUNT PLEASANT CLEAR     48  45  90 W3        30.08R
MUSKEGON       CLEAR     50  43  77 CALM      30.10F
SOUTH HAVEN    CLEAR     49  47  92 CALM      30.11R
$$
MIZ016>042-170200-
NORTHERN LOWER MICHIGAN

CITY           SKY/WX    TMP DP  RH WIND       PRES   REMARKS
ALPENA         CLEAR     50  43  77 CALM      30.03R
BEAVER ISLAND  CLOUDY    59  51  73 SW12G18   29.99F
BELLAIRE       CLEAR     53  43  70 CALM      30.04S
CADILLAC       CLEAR     46  41  83 SW6       30.07S
CHARLEVOIX     CLEAR     56  44  65 SW7       30.04F
FRANKFORT      CLEAR     58  46  64 SW5       30.05S
GAYLORD        CLEAR     48  41  76 SW6       30.04S
GRAYLING       CLEAR     52  42  69 SW3       30.06S
HARBOR SPRINGS CLEAR     57  43  59 SW7       30.01S
HOUGHTON LAKE  CLEAR     55  42  61 W8        30.06S
MANISTEE       CLEAR     52  41  66 CALM      30.08S
OSCODA         CLEAR     50  45  83 SW5       30.03S
PELLSTON       PTCLDY    54  43  66 SW5       30.01S
ROGERS CITY    CLEAR     52  44  73 SW8       30.02S
TRAVERSE CITY  CLEAR     54  42  64 S5        30.03F
$$
MIZ007>008-015-170200-
EASTERN UPPER MICHIGAN

CITY           SKY/WX    TMP DP  RH WIND       PRES   REMARKS
KINROSS        CLOUDY    54  48  82 NW10      29.99R
MACKINAC ISLAN CLOUDY    57  47  71 SW12      29.98F
NEWBERRY       CLOUDY    54  44  67 NW10      30.00R
S. S. MARIE    CLOUDY    54  44  69 NW6       29.99R
MUNISING         N/A     57  47  69 N15       30.00R
$$
MIZ004>006-011>014-085-170200-
CENTRAL UPPER MICHIGAN

CITY           SKY/WX    TMP DP  RH WIND       PRES   REMARKS
MANISTIQUE     CLOUDY    56  51  82 NW3       29.99R
ESCANABA       PTCLDY    54  46  76 SW3       29.99R
MENOMINEE      CLEAR     57  45  62 SW7       30.01S
SAWYER-GWINN   CLOUDY    54  45  71 NE7       30.00S
$$
MIZ001>003-009>011-084-170200-
WESTERN UPPER MICHIGAN

CITY           SKY/WX    TMP DP  RH WIND       PRES   REMARKS
IRON MOUNTAIN  CLEAR     55  43  63 CALM      29.99S
HOUGHTON       CLOUDY    51  45  79 NW3       29.97S
COPPER HARBOR    N/A     48  44  86 CALM      29.99R
IRONWOOD       PTCLDY    57  46  67 SW7       29.97S
$$

ABBREVIATIONS USED IN REMARKS
   TC - TEMPERATURE IN CELSIUS
  WCI - WIND CHILL INDEX
   HX - HEAT INDEX
  VSB - VISIBILITY



USA.gov is the U.S. government's official web portal to all federal, state and local government web resources and services.